Time,TemperatureF,DewpointF,PressureIn,WindDirection,WindDirectionDegrees,WindSpeedMPH,WindSpeedGustMPH,Humidity,HourlyPrecipIn,Conditions,Clouds,dailyrainin,SoftwareType,DateUTC
2013-03-02 00:02:00,30.0,28.0,30.10,NNE,26,9.0,15.0,94,0.00,,,0.02,,2013-03-02 05:02:00,
2013-03-02 00:12:00,30.0,28.0,30.10,NNE,26,9.0,15.0,94,0.00,,,0.02,,2013-03-02 05:12:00,
2013-03-02 00:22:00,30.0,28.0,30.10,NNE,26,9.0,10.0,94,0.00,,,0.02,,2013-03-02 05:22:00,
2013-03-02 00:32:00,30.0,28.0,30.10,NNE,18,8.0,13.0,94,0.00,,,0.02,,2013-03-02 05:32:00,
2013-03-02 00:41:00,30.0,28.0,30.10,NNE,18,8.0,13.0,94,0.00,,,0.02,,2013-03-02 05:41:00,
2013-03-02 00:52:00,30.0,28.0,30.10,NE,35,7.0,10.0,94,0.00,,,0.02,,2013-03-02 05:52:00,
2013-03-02 01:01:00,30.0,28.0,30.09,NNE,29,5.0,8.0,94,0.00,,,0.02,,2013-03-02 06:01:00,
2013-03-02 01:11:00,30.0,28.0,30.09,NNE,29,5.0,8.0,94,0.00,,,0.02,,2013-03-02 06:11:00,
2013-03-02 01:21:00,30.0,28.0,30.09,NNE,30,5.0,9.0,94,0.00,,,0.02,,2013-03-02 06:21:00,
2013-03-02 01:31:00,30.0,29.0,30.09,NE,37,6.0,8.0,95,0.00,,,0.02,,2013-03-02 06:31:00,
2013-03-02 01:41:00,30.0,29.0,30.09,NE,37,6.0,8.0,95,0.00,,,0.02,,2013-03-02 06:41:00,
2013-03-02 01:51:00,30.0,29.0,30.09,NE,40,6.0,9.0,95,0.00,,,0.02,,2013-03-02 06:51:00,
2013-03-02 02:01:00,29.0,28.0,30.10,NE,39,8.0,10.0,95,0.00,,,0.02,,2013-03-02 07:01:00,
2013-03-02 02:11:00,29.0,28.0,30.10,NE,50,6.0,10.0,95,0.00,,,0.02,,2013-03-02 07:11:00,
2013-03-02 02:21:00,29.0,28.0,30.10,NE,50,6.0,10.0,95,0.00,,,0.02,,2013-03-02 07:21:00,
2013-03-02 02:32:00,29.0,28.0,30.10,NE,53,7.0,9.0,95,0.00,,,0.02,,2013-03-02 07:32:00,
2013-03-02 02:42:00,29.0,28.0,30.10,NE,53,7.0,9.0,95,0.00,,,0.02,,2013-03-02 07:42:00,
2013-03-02 02:51:00,30.0,29.0,30.10,NE,50,6.0,10.0,95,0.00,,,0.02,,2013-03-02 07:51:00,
2013-03-02 03:01:00,30.0,29.0,30.10,NNE,23,5.0,9.0,95,0.00,,,0.02,,2013-03-02 08:01:00,
2013-03-02 03:11:00,30.0,29.0,30.10,NNE,23,5.0,9.0,95,0.00,,,0.02,,2013-03-02 08:11:00,
2013-03-02 03:21:00,30.0,28.0,30.10,NE,56,6.0,8.0,94,0.00,,,0.02,,2013-03-02 08:21:00,
2013-03-02 03:32:00,29.0,27.0,30.10,NE,51,8.0,9.0,94,0.00,,,0.02,,2013-03-02 08:32:00,
2013-03-02 03:42:00,29.0,27.0,30.10,NE,51,8.0,9.0,94,0.00,,,0.02,,2013-03-02 08:42:00,
2013-03-02 03:52:00,29.0,27.0,30.10,NE,52,5.0,9.0,94,0.00,,,0.02,,2013-03-02 08:52:00,
2013-03-02 04:01:00,29.0,27.0,30.09,ENE,62,7.0,9.0,93,0.00,,,0.02,,2013-03-02 09:01:00,
2013-03-02 04:11:00,29.0,27.0,30.09,NE,50,6.0,12.0,93,0.00,,,0.02,,2013-03-02 09:11:00,
2013-03-02 04:21:00,29.0,27.0,30.09,NE,50,6.0,12.0,93,0.00,,,0.02,,2013-03-02 09:21:00,
2013-03-02 04:32:00,29.0,27.0,30.09,North,8,5.0,7.0,93,0.00,,,0.02,,2013-03-02 09:32:00,
2013-03-02 04:42:00,29.0,27.0,30.09,North,8,5.0,7.0,93,0.00,,,0.02,,2013-03-02 09:42:00,
2013-03-02 04:51:00,28.0,26.0,30.09,NE,50,6.0,7.0,93,0.00,,,0.02,,2013-03-02 09:51:00,
2013-03-02 05:01:00,28.0,26.0,30.09,NE,41,3.0,8.0,92,0.00,,,0.02,,2013-03-02 10:01:00,
2013-03-02 05:15:00,28.0,26.0,30.09,NE,41,3.0,8.0,92,0.00,,,0.02,,2013-03-02 10:15:00,
2013-03-02 05:22:00,28.0,26.0,30.10,NE,39,6.0,8.0,92,0.00,,,0.02,,2013-03-02 10:22:00,
2013-03-02 05:32:00,28.0,25.0,30.10,NE,55,7.0,8.0,90,0.00,,,0.02,,2013-03-02 10:32:00,
2013-03-02 05:42:00,28.0,25.0,30.10,NE,55,7.0,8.0,90,0.00,,,0.02,,2013-03-02 10:42:00,
2013-03-02 05:51:00,28.0,25.0,30.10,NE,54,7.0,12.0,89,0.00,,,0.02,,2013-03-02 10:51:00,
2013-03-02 06:01:00,27.0,24.0,30.10,ENE,61,0.0,0.0,87,0.00,,,0.02,,2013-03-02 11:01:00,
2013-03-02 06:11:00,27.0,24.0,30.10,ENE,61,0.0,0.0,87,0.00,,,0.02,,2013-03-02 11:11:00,
2013-03-02 06:21:00,27.0,24.0,30.10,NE,56,6.0,9.0,88,0.00,,,0.02,,2013-03-02 11:21:00,
2013-03-02 06:32:00,27.0,24.0,30.10,NE,37,2.0,8.0,88,0.00,,,0.02,,2013-03-02 11:32:00,
2013-03-02 06:41:00,27.0,24.0,30.10,NE,37,2.0,8.0,88,0.00,,,0.02,,2013-03-02 11:41:00,
2013-03-02 06:52:00,27.0,24.0,30.10,NE,35,0.0,0.0,89,0.00,,,0.02,,2013-03-02 11:52:00,
2013-03-02 07:02:00,27.0,24.0,30.10,NNE,14,1.0,5.0,89,0.00,,,0.02,,2013-03-02 12:02:00,
2013-03-02 07:11:00,27.0,24.0,30.10,NNE,14,1.0,5.0,89,0.00,,,0.02,,2013-03-02 12:11:00,
2013-03-02 07:21:00,27.0,24.0,30.10,NNE,13,0.0,0.0,89,0.00,,,0.02,,2013-03-02 12:21:00,
2013-03-02 07:33:00,27.0,24.0,30.10,NNE,13,0.0,0.0,89,0.00,,,0.02,,2013-03-02 12:33:00,
2013-03-02 07:43:00,27.0,24.0,30.10,NNE,13,0.0,0.0,89,0.00,,,0.02,,2013-03-02 12:43:00,
2013-03-02 07:53:00,27.0,24.0,30.10,NNE,13,0.0,0.0,90,0.00,,,0.02,,2013-03-02 12:53:00,
2013-03-02 08:01:00,28.0,25.0,30.11,North,355,2.0,5.0,90,0.00,,,0.02,,2013-03-02 13:01:00,
2013-03-02 08:11:00,28.0,25.0,30.11,North,355,2.0,5.0,90,0.00,,,0.02,,2013-03-02 13:11:00,
2013-03-02 08:21:00,28.0,25.0,30.11,NNE,14,0.0,0.0,90,0.00,,,0.02,,2013-03-02 13:21:00,
2013-03-02 08:32:00,28.0,25.0,30.12,North,5,2.0,5.0,90,0.00,,,0.02,,2013-03-02 13:32:00,
2013-03-02 08:41:00,28.0,25.0,30.12,North,5,2.0,5.0,90,0.00,,,0.02,,2013-03-02 13:41:00,
2013-03-02 08:52:00,28.0,25.0,30.12,North,0,2.0,0.0,90,0.00,,,0.02,,2013-03-02 13:52:00,
2013-03-02 09:01:00,28.0,25.0,30.12,North,3,0.0,0.0,90,0.00,,,0.02,,2013-03-02 14:01:00,
2013-03-02 09:11:00,28.0,25.0,30.12,North,3,0.0,0.0,90,0.00,,,0.02,,2013-03-02 14:11:00,
2013-03-02 09:21:00,28.0,26.0,30.12,NNW,347,0.0,0.0,91,0.00,,,0.02,,2013-03-02 14:21:00,
2013-03-02 09:32:00,29.0,26.0,30.12,NNW,341,6.0,8.0,90,0.00,,,0.02,,2013-03-02 14:32:00,
2013-03-02 09:42:00,29.0,26.0,30.12,NNW,341,6.0,8.0,90,0.00,,,0.02,,2013-03-02 14:42:00,
2013-03-02 09:52:00,29.0,26.0,30.12,North,353,6.0,8.0,90,0.00,,,0.02,,2013-03-02 14:52:00,
2013-03-02 10:02:00,29.0,26.0,30.13,North,1,7.0,10.0,90,0.00,,,0.02,,2013-03-02 15:02:00,
2013-03-02 10:11:00,29.0,26.0,30.13,North,1,7.0,10.0,90,0.00,,,0.02,,2013-03-02 15:11:00,
2013-03-02 10:21:00,29.0,27.0,30.13,North,0,6.0,8.0,91,0.00,,,0.02,,2013-03-02 15:21:00,
2013-03-02 10:32:00,29.0,27.0,30.13,North,358,5.0,8.0,93,0.00,,,0.02,,2013-03-02 15:32:00,
2013-03-02 10:42:00,29.0,27.0,30.13,North,358,5.0,8.0,93,0.00,,,0.02,,2013-03-02 15:42:00,
2013-03-02 10:52:00,29.0,27.0,30.13,North,354,5.0,10.0,94,0.00,,,0.02,,2013-03-02 15:52:00,
2013-03-02 11:01:00,29.0,28.0,30.13,NNW,345,7.0,10.0,95,0.00,,,0.02,,2013-03-02 16:01:00,
2013-03-02 11:11:00,29.0,28.0,30.13,NNW,345,7.0,10.0,95,0.00,,,0.02,,2013-03-02 16:11:00,
2013-03-02 11:21:00,29.0,28.0,30.13,North,10,2.0,3.0,96,0.00,,,0.02,,2013-03-02 16:21:00,
2013-03-02 11:32:00,29.0,28.0,30.13,North,5,6.0,9.0,97,0.00,,,0.02,,2013-03-02 16:32:00,
2013-03-02 11:41:00,29.0,28.0,30.13,North,5,6.0,9.0,97,0.00,,,0.02,,2013-03-02 16:41:00,
2013-03-02 11:51:00,28.0,27.0,30.13,North,11,6.0,8.0,96,0.00,,,0.02,,2013-03-02 16:51:00,
2013-03-02 12:01:00,29.0,27.0,30.13,NNE,33,5.0,8.0,93,0.00,,,0.02,,2013-03-02 17:01:00,
2013-03-02 12:11:00,29.0,26.0,30.13,NNE,27,8.0,12.0,89,0.00,,,0.02,,2013-03-02 17:11:00,
2013-03-02 12:21:00,29.0,26.0,30.13,NNE,27,8.0,12.0,89,0.00,,,0.02,,2013-03-02 17:21:00,
2013-03-02 12:32:00,31.0,26.0,30.12,NE,42,10.0,15.0,82,0.00,,,0.01,,2013-03-02 17:32:00,
2013-03-02 12:42:00,31.0,26.0,30.12,NE,42,10.0,15.0,82,0.00,,,0.01,,2013-03-02 17:42:00,
2013-03-02 12:52:00,31.0,26.0,30.12,NNE,21,10.0,13.0,81,0.01,,,0.02,,2013-03-02 17:52:00,
2013-03-02 13:02:00,32.0,27.0,30.12,NNE,18,9.0,12.0,81,0.01,,,0.02,,2013-03-02 18:02:00,
2013-03-02 13:11:00,32.0,27.0,30.12,NNE,18,9.0,12.0,81,0.01,,,0.02,,2013-03-02 18:11:00,
2013-03-02 13:22:00,32.0,27.0,30.12,North,5,8.0,12.0,80,0.01,,,0.01,,2013-03-02 18:22:00,
2013-03-02 13:32:00,32.0,26.0,30.11,NNE,16,6.0,12.0,79,0.01,,,0.01,,2013-03-02 18:32:00,
2013-03-02 13:42:00,32.0,26.0,30.11,NNE,16,6.0,12.0,79,0.01,,,0.01,,2013-03-02 18:42:00,
2013-03-02 13:52:00,32.0,26.0,30.11,NNE,19,7.0,10.0,79,0.00,,,0.01,,2013-03-02 18:52:00,
2013-03-02 14:01:00,32.0,27.0,30.11,North,2,5.0,9.0,82,0.00,,,0.01,,2013-03-02 19:01:00,
2013-03-02 14:11:00,32.0,27.0,30.11,North,2,5.0,9.0,82,0.00,,,0.01,,2013-03-02 19:11:00,
2013-03-02 14:21:00,31.0,27.0,30.11,NNE,14,8.0,12.0,85,0.00,,,0.01,,2013-03-02 19:21:00,
2013-03-02 14:32:00,32.0,28.0,30.10,NNW,344,6.0,9.0,85,0.00,,,0.01,,2013-03-02 19:32:00,
2013-03-02 14:42:00,32.0,28.0,30.10,NNW,344,6.0,9.0,85,0.00,,,0.01,,2013-03-02 19:42:00,
2013-03-02 14:52:00,33.0,28.0,30.10,NNW,343,6.0,9.0,82,0.00,,,0.01,,2013-03-02 19:52:00,
2013-03-02 15:01:00,33.0,28.0,30.09,NNW,337,5.0,7.0,83,0.00,,,0.01,,2013-03-02 20:01:00,
2013-03-02 15:11:00,33.0,28.0,30.09,NNW,337,5.0,7.0,83,0.00,,,0.01,,2013-03-02 20:11:00,
2013-03-02 15:22:00,33.0,29.0,30.09,NNW,339,6.0,9.0,84,0.00,,,0.01,,2013-03-02 20:22:00,
2013-03-02 15:32:00,33.0,30.0,30.09,North,0,8.0,10.0,88,0.00,,,0.01,,2013-03-02 20:32:00,
2013-03-02 15:42:00,33.0,30.0,30.09,North,0,8.0,10.0,88,0.00,,,0.01,,2013-03-02 20:42:00,
2013-03-02 15:52:00,33.0,31.0,30.09,NNW,328,9.0,14.0,91,0.00,,,0.01,,2013-03-02 20:52:00,
2013-03-02 16:02:00,31.0,29.0,30.09,North,357,8.0,13.0,94,0.00,,,0.01,,2013-03-02 21:02:00,
2013-03-02 16:11:00,31.0,29.0,30.09,North,357,8.0,13.0,94,0.00,,,0.01,,2013-03-02 21:11:00,
2013-03-02 16:22:00,31.0,30.0,30.09,North,351,7.0,9.0,95,0.00,,,0.01,,2013-03-02 21:22:00,
2013-03-02 16:32:00,31.0,31.0,30.09,NNW,343,5.0,9.0,98,0.00,,,0.01,,2013-03-02 21:32:00,
2013-03-02 16:42:00,31.0,31.0,30.09,NNW,343,5.0,9.0,98,0.00,,,0.01,,2013-03-02 21:42:00,
2013-03-02 16:52:00,31.0,31.0,30.10,NNW,331,9.0,13.0,98,0.00,,,0.01,,2013-03-02 21:52:00,
2013-03-02 17:02:00,31.0,30.0,30.10,NNW,348,7.0,13.0,96,0.00,,,0.01,,2013-03-02 22:02:00,
2013-03-02 17:11:00,31.0,30.0,30.10,NNW,348,7.0,13.0,96,0.00,,,0.01,,2013-03-02 22:11:00,
2013-03-02 17:22:00,31.0,30.0,30.10,NNW,341,6.0,10.0,95,0.00,,,0.01,,2013-03-02 22:22:00,
2013-03-02 17:32:00,31.0,30.0,30.10,North,354,7.0,15.0,95,0.00,,,0.01,,2013-03-02 22:32:00,
2013-03-02 17:42:00,31.0,30.0,30.10,North,354,7.0,15.0,95,0.00,,,0.01,,2013-03-02 22:42:00,
2013-03-02 17:51:00,31.0,29.0,30.10,NNW,342,8.0,13.0,94,0.00,,,0.01,,2013-03-02 22:51:00,
2013-03-02 18:01:00,31.0,30.0,30.11,NNW,336,9.0,15.0,96,0.00,,,0.01,,2013-03-02 23:01:00,
2013-03-02 18:11:00,31.0,30.0,30.11,NNW,348,8.0,10.0,96,0.00,,,0.01,,2013-03-02 23:11:00,
2013-03-02 18:21:00,31.0,30.0,30.11,NNW,348,8.0,10.0,96,0.00,,,0.01,,2013-03-02 23:21:00,
2013-03-02 18:32:00,30.0,29.0,30.11,NNW,347,10.0,15.0,95,0.00,,,0.01,,2013-03-02 23:32:00,
2013-03-02 18:42:00,30.0,29.0,30.11,NNW,347,10.0,15.0,95,0.00,,,0.01,,2013-03-02 23:42:00,
2013-03-02 18:52:00,30.0,29.0,30.11,NNW,343,5.0,7.0,95,0.00,,,0.01,,2013-03-02 23:52:00,
2013-03-02 19:02:00,30.0,29.0,30.12,North,358,9.0,15.0,95,0.00,,,0.01,,2013-03-03 00:02:00,
2013-03-02 19:11:00,30.0,29.0,30.12,North,358,9.0,15.0,95,0.00,,,0.01,,2013-03-03 00:11:00,
2013-03-02 19:22:00,30.0,29.0,30.12,North,354,7.0,9.0,95,0.00,,,0.01,,2013-03-03 00:22:00,
2013-03-02 19:32:00,30.0,29.0,30.12,North,351,9.0,12.0,95,0.00,,,0.01,,2013-03-03 00:32:00,
2013-03-02 19:42:00,30.0,29.0,30.12,North,351,9.0,12.0,95,0.00,,,0.01,,2013-03-03 00:42:00,
2013-03-02 19:52:00,30.0,29.0,30.12,NNW,344,7.0,10.0,96,0.00,,,0.01,,2013-03-03 00:52:00,
2013-03-02 20:01:00,29.0,28.0,30.12,NNW,348,5.0,7.0,97,0.00,,,0.01,,2013-03-03 01:01:00,
2013-03-02 20:11:00,29.0,28.0,30.12,NNW,348,5.0,7.0,97,0.00,,,0.01,,2013-03-03 01:11:00,
2013-03-02 20:21:00,29.0,28.0,30.12,NNW,339,5.0,8.0,97,0.00,,,0.01,,2013-03-03 01:21:00,
2013-03-02 20:32:00,29.0,28.0,30.12,NNW,338,6.0,8.0,97,0.00,,,0.01,,2013-03-03 01:32:00,
2013-03-02 20:41:00,29.0,28.0,30.12,NNW,338,6.0,8.0,97,0.00,,,0.01,,2013-03-03 01:41:00,
2013-03-02 20:52:00,29.0,29.0,30.12,North,355,3.0,9.0,98,0.00,,,0.01,,2013-03-03 01:52:00,
2013-03-02 21:01:00,29.0,28.0,30.12,North,349,2.0,7.0,97,0.00,,,0.01,,2013-03-03 02:01:00,
2013-03-02 21:11:00,29.0,28.0,30.12,North,352,5.0,9.0,97,0.00,,,0.01,,2013-03-03 02:11:00,
2013-03-02 21:21:00,29.0,28.0,30.12,North,352,5.0,9.0,97,0.00,,,0.01,,2013-03-03 02:21:00,
2013-03-02 21:32:00,29.0,28.0,30.12,North,349,1.0,5.0,96,0.00,,,0.01,,2013-03-03 02:32:00,
2013-03-02 21:41:00,29.0,28.0,30.12,North,349,1.0,5.0,96,0.00,,,0.01,,2013-03-03 02:41:00,
2013-03-02 21:52:00,29.0,28.0,30.13,NNW,348,5.0,7.0,96,0.00,,,0.01,,2013-03-03 02:52:00,
2013-03-02 22:01:00,29.0,28.0,30.13,NNW,344,7.0,12.0,95,0.00,,,0.01,,2013-03-03 03:01:00,
2013-03-02 22:11:00,29.0,28.0,30.13,NNW,344,7.0,12.0,95,0.00,,,0.01,,2013-03-03 03:11:00,
2013-03-02 22:21:00,29.0,28.0,30.13,NNW,344,8.0,13.0,95,0.00,,,0.01,,2013-03-03 03:21:00,
2013-03-02 22:31:00,29.0,28.0,30.13,North,351,7.0,9.0,95,0.00,,,0.01,,2013-03-03 03:31:00,
2013-03-02 22:41:00,29.0,28.0,30.13,North,351,7.0,9.0,95,0.00,,,0.01,,2013-03-03 03:41:00,
2013-03-02 22:51:00,29.0,28.0,30.13,North,358,7.0,10.0,95,0.00,,,0.01,,2013-03-03 03:51:00,
2013-03-02 23:01:00,29.0,28.0,30.13,North,8,8.0,14.0,95,0.00,,,0.01,,2013-03-03 04:01:00,
2013-03-02 23:11:00,29.0,28.0,30.13,North,8,8.0,14.0,95,0.00,,,0.01,,2013-03-03 04:11:00,
2013-03-02 23:21:00,29.0,28.0,30.13,North,7,7.0,10.0,95,0.00,,,0.01,,2013-03-03 04:21:00,
2013-03-02 23:32:00,28.0,27.0,30.13,North,1,7.0,12.0,94,0.00,,,0.01,,2013-03-03 04:32:00,
2013-03-02 23:41:00,28.0,27.0,30.13,North,1,7.0,12.0,94,0.00,,,0.01,,2013-03-03 04:41:00,
2013-03-02 23:51:00,28.0,26.0,30.13,North,357,6.0,9.0,92,0.00,,,0.01,,2013-03-03 04:51:00,